Temperature
-0 0 0 -0 -1 -1 -1 -1 -1 -0 -0 -0 -1 -2 -2 -2 -3 -3 -4 -4 -5 -5 -5 -5 -5 -5 -5 -5 -5 -5 -5 -5 -5 -5 -5 -5 -5 -4 -4 -4 -4 -4 -4 -4
-2 -1 -1 -1 -1 -1 -1 -2 -1 -1 -2 -2 -2 -2 -2 -3 -3 -4 -4 -5 -5 -5 -5 -5 -5 -5 -5 -5 -6 -6 -6 -6 -6 -6 -6 -5 -5 -5 -5 -5 -5 -5 -5 -5
-1 -2 -1 -2 -2 -2 -2 -3 -3 -2 -2 -3 -3 -3 -3 -4 -4 -4 -4 -5 -5 -5 -5 -5 -5 -6 -6 -6 -6 -6 -6 -6 -6 -6 -6 -6 -6 -6 -6 -6 -6 -6 -6 -5
-2 -2 -2 -1 -2 -2 -3 -4 -4 -4 -4 -4 -4 -4 -4 -4 -4 -5 -5 -5 -5 -5 -5 -6 -6 -6 -6 -7 -7 -7 -7 -7 -7 -7 -7 -7 -6 -6 -6 -6 -6 -6 -6 -6
-2 -2 -1 -2 -3 -4 -4 -4 -5 -5 -5 -4 -4 -4 -4 -4 -5 -5 -5 -6 -6 -6 -6 -6 -6 -7 -7 -7 -7 -7 -7 -7 -7 -7 -7 -7 -7 -7 -7 -7 -7 -7 -7 -7
-2 -2 -2 -2 -5 -4 -4 -5 -5 -5 -5 -5 -5 -6 -5 -5 -5 -6 -6 -6 -6 -7 -7 -7 -7 -7 -7 -8 -8 -8 -8 -8 -8 -8 -8 -8 -8 -8 -8 -8 -7 -7 -7 -7
-3 -3 -3 -5 -5 -5 -4 -4 -5 -4 -5 -5 -6 -6 -6 -6 -6 -7 -7 -7 -7 -7 -7 -7 -8 -8 -8 -8 -8 -8 -9 -9 -9 -9 -8 -8 -8 -8 -8 -8 -8 -8 -8 -8
-4 -3 -3 -6 -6 -6 -5 -5 -5 -5 -5 -6 -6 -6 -7 -7 -7 -7 -8 -8 -8 -8 -8 -8 -8 -9 -9 -9 -9 -9 -9 -9 -9 -9 -9 -9 -9 -9 -9 -9 -9 -9 -9 -9
-5 -4 -5 -6 -5 -5 -5 -6 -6 -6 -6 -7 -7 -7 -8 -8 -8 -8 -8 -8 -9 -9 -8 -9 -9 -9 -9 -10 -10 -10 -10 -10 -10 -10 -10 -10 -10 -10 -10 -10 -10 -10 -10 -10
-6 -6 -6 -5 -5 -6 -6 -6 -6 -7 -7 -7 -8 -8 -9 -9 -9 -9 -9 -9 -9 -9 -9 -9 -10 -10 -10 -10 -11 -11 -10 -10 -10 -10 -10 -10 -10 -10 -10 -10 -10 -11 -11 -10
-7 -7 -6 -6 -6 -6 -7 -7 -7 -7 -8 -8 -9 -9 -9 -9 -10 -10 -10 -10 -10 -10 -10 -10 -10 -10 -11 -11 -11 -11 -11 -11 -11 -11 -11 -11 -11 -11 -11 -11 -11 -11 -11 -11
-7 -7 -8 -7 -7 -7 -7 -8 -8 -8 -9 -9 -9 -10 -10 -10 -10 -10 -11 -11 -11 -11 -11 -11 -11 -11 -11 -11 -12 -12 -12 -12 -11 -11 -11 -11 -11 -11 -11 -12 -12 -12 -12 -12
-7 -7 -7 -7 -8 -8 -8 -9 -9 -9 -9 -10 -10 -10 -10 -11 -11 -11 -11 -12 -12 -12 -12 -12 -12 -12 -12 -12 -12 -12 -12 -12 -12 -12 -12 -12 -12 -12 -12 -12 -12 -12 -12 -12
-8 -8 -9 -9 -9 -9 -9 -10 -10 -10 -10 -10 -11 -11 -11 -11 -12 -12 -12 -12 -12 -12 -13 -13 -13 -13 -13 -13 -13 -13 -13 -13 -13 -13 -13 -13 -13 -13 -13 -13 -13 -13 -12 -13
-9 -9 -9 -9 -10 -10 -10 -10 -11 -11 -11 -11 -11 -12 -12 -12 -12 -13 -13 -13 -13 -13 -13 -13 -13 -13 -13 -13 -13 -13 -13 -13 -13 -13 -14 -14 -14 -14 -14 -14 -14 -13 -13 -13
-10 -10 -10 -10 -11 -11 -11 -11 -11 -11 -12 -12 -12 -12 -13 -13 -13 -13 -14 -14 -14 -14 -14 -14 -14 -14 -14 -14 -14 -14 -14 -14 -14 -14 -14 -14 -14 -14 -14 -14 -14 -14 -14 -14
-11 -11 -11 -11 -11 -12 -12 -12 -12 -12 -12 -12 -13 -13 -13 -14 -14 -14 -14 -14 -14 -14 -14 -14 -14 -14 -14 -14 -14 -14 -14 -15 -15 -15 -15 -15 -15 -15 -15 -15 -15 -15 -14 -14
-11 -11 -11 -12 -12 -12 -12 -12 -13 -13 -13 -13 -13 -14 -14 -14 -14 -15 -15 -15 -15 -15 -15 -15 -15 -15 -15 -15 -15 -15 -15 -15 -15 -15 -15 -15 -15 -15 -15 -15 -15 -15 -15 -15
-12 -12 -12 -12 -12 -13 -13 -13 -13 -13 -14 -14 -14 -14 -15 -15 -15 -15 -15 -15 -15 -15 -15 -15 -15 -15 -15 -15 -15 -15 -16 -16 -16 -16 -16 -16 -16 -16 -16 -15 -15 -16 -15 -15
-12 -12 -12 -13 -13 -13 -13 -14 -14 -14 -14 -14 -15 -15 -15 -15 -15 -16 -15 -15 -15 -16 -16 -16 -16 -16 -16 -16 -16 -16 -16 -16 -16 -16 -16 -16 -16 -16 -16 -16 -16 -16 -16 -16
-13 -13 -13 -13 -13 -14 -14 -14 -14 -14 -15 -15 -15 -15 -15 -16 -16 -16 -16 -16 -16 -16 -16 -16 -16 -16 -16 -16 -16 -16 -16 -16 -16 -17 -17 -17 -17 -16 -16 -16 -16 -16 -16 -16
-13 -14 -14 -14 -14 -14 -15 -15 -15 -15 -15 -15 -16 -16 -16 -16 -16 -16 -16 -16 -16 -16 -16 -16 -16 -16 -17 -17 -17 -17 -17 -17 -17 -17 -17 -17 -17 -17 -17 -17 -17 -17 -17 -17
-14 -14 -14 -15 -15 -15 -15 -15 -15 -16 -16 -16 -16 -16 -16 -17 -17 -17 -17 -17 -17 -17 -17 -17 -17 -17 -17 -17 -17 -17 -17 -17 -17 -17 -17 -17 -17 -17 -17 -17 -17 -17 -17 -17
-14 -15 -15 -15 -15 -15 -16 -16 -16 -16 -16 -17 -17 -17 -17 -17 -17 -17 -17 -17 -17 -17 -17 -17 -17 -17 -18 -17 -17 -17 -17 -17 -17 -18 -18 -18 -18 -18 -18 -18 -18 -17 -17 -17
-15 -15 -15 -15 -16 -16 -16 -16 -17 -17 -17 -17 -17 -17 -17 -17 -17 -17 -17 -17 -18 -18 -18 -18 -18 -18 -18 -18 -18 -18 -18 -18 -18 -18 -18 -18 -18 -18 -18 -18 -18 -18 -18 -17
-15 -16 -16 -16 -16 -16 -17 -17 -17 -17 -17 -17 -17 -18 -18 -18 -18 -18 -18 -18 -18 -18 -18 -18 -18 -18 -18 -18 -18 -18 -18 -18 -18 -18 -18 -18 -18 -18 -18 -18 -18 -18 -18 -18
-16 -16 -16 -16 -16 -17 -17 -17 -17 -18 -18 -18 -18 -18 -18 -18 -18 -18 -18 -18 -18 -18 -18 -18 -18 -18 -18 -18 -18 -18 -18 -18 -18 -18 -18 -18 -18 -18 -18 -18 -18 -18 -18 -17
Wind_Speed
7 6 4 6 8 8 10 9 8 8 8 8 4 2 1 1 1 1 1 0 0 1 1 1 1 1 2 2 2 2 2 2 2 3 2 2 2 2 3 3 3 3 3 3
5 6 6 9 11 11 11 9 11 11 11 7 4 1 0 0 1 1 1 1 1 1 2 2 2 2 2 2 2 2 2 3 3 2 2 2 2 2 3 3 3 3 3 3
3 2 3 8 9 9 7 6 7 11 9 3 2 3 3 2 2 2 2 2 2 2 2 2 2 2 2 2 2 2 2 3 3 2 2 2 3 2 3 3 3 3 3 3
2 1 7 6 2 4 6 5 6 5 4 3 3 3 2 1 2 2 2 2 2 2 2 2 1 2 2 2 2 2 2 3 3 3 3 3 3 3 3 3 3 3 4 4
3 4 8 4 2 3 4 5 4 6 6 4 2 2 2 1 1 1 1 1 1 2 2 1 1 1 2 2 2 2 3 3 3 3 3 3 3 4 4 3 4 4 4 4
4 5 7 4 1 1 2 4 2 4 4 2 0 2 3 1 2 2 2 1 1 1 1 1 2 1 2 3 3 3 4 4 4 3 4 4 4 4 4 4 4 4 5 4
6 6 6 3 2 3 3 5 1 2 2 2 3 4 2 2 2 2 2 2 1 1 1 2 1 1 2 3 4 4 3 3 4 4 4 4 4 4 3 4 4 4 5 5
5 6 7 2 5 5 4 0 1 1 1 2 2 2 1 2 2 2 3 3 2 2 2 2 1 1 2 4 4 3 3 3 4 4 4 4 4 4 4 3 4 4 4 5
6 6 2 4 4 2 1 0 1 0 1 1 2 3 2 2 3 3 3 3 2 2 3 3 2 2 3 4 4 4 3 4 4 4 4 4 4 4 3 3 3 4 4 4
4 5 3 3 2 1 1 1 1 0 1 1 2 3 3 3 3 3 3 2 2 2 3 4 3 3 3 4 4 4 4 4 4 4 4 4 3 3 3 3 4 4 4 5
5 5 3 3 2 2 1 1 1 1 1 2 2 3 3 3 3 3 3 3 2 3 3 4 4 4 4 3 3 3 4 5 4 4 4 4 4 4 4 4 5 5 5 5
6 3 3 3 1 0 1 2 2 2 2 2 2 3 3 3 2 2 3 3 3 3 4 4 4 5 4 3 3 3 4 4 4 3 4 3 4 5 7 7 9 10 10 8
5 3 3 3 2 1 2 2 2 1 2 2 2 2 2 2 3 2 3 3 3 4 4 4 4 5 5 4 3 3 5 5 4 4 4 4 4 4 5 6 8 9 10 10
2 2 3 3 3 2 1 1 1 1 1 1 1 1 1 2 2 3 3 4 4 4 4 4 4 5 5 4 4 4 5 6 5 4 4 4 4 5 4 5 5 5 7 9
2 2 3 2 1 1 1 1 1 1 1 1 1 1 1 2 3 4 4 4 4 4 4 4 5 6 4 4 4 5 5 4 4 4 4 4 4 4 4 4 5 5 5 6
2 2 1 2 2 2 1 1 2 2 1 1 1 2 2 2 3 4 4 3 3 5 5 5 6 6 5 4 4 4 4 7 6 4 3 4 4 4 3 4 4 4 4 5
0 2 2 2 3 3 2 2 2 2 1 1 2 2 2 2 3 4 4 4 4 5 6 6 6 6 5 4 4 4 4 5 7 5 3 3 3 4 4 4 4 4 4 6
1 1 1 2 2 2 2 1 1 1 1 1 1 2 2 3 3 4 5 5 5 6 6 6 5 5 5 4 4 3 3 3 3 4 3 3 4 3 3 4 4 5 5 6
1 1 1 1 1 0 1 1 1 1 1 1 1 2 3 3 4 4 4 5 5 6 6 6 8 6 5 5 5 3 3 4 4 4 4 6 5 3 4 4 4 5 5 5
1 1 1 2 2 1 1 1 1 1 1 1 1 2 3 4 4 4 4 5 4 5 6 7 6 5 5 5 5 3 3 4 4 4 4 4 4 4 4 5 5 5 5 5
1 1 1 1 1 1 1 1 0 1 2 1 1 2 3 4 4 4 4 5 5 5 6 8 5 4 4 5 5 3 3 4 4 4 4 4 4 4 5 5 5 6 5 5
1 1 1 1 1 1 1 1 0 1 2 2 2 3 3 4 4 4 4 4 5 8 6 4 4 7 7 6 3 3 3 4 4 4 4 4 4 5 5 5 5 6 6 5
1 0 1 1 1 1 2 1 1 1 2 2 3 3 3 4 3 4 5 4 4 8 6 4 7 10 10 5 3 3 4 4 4 4 4 4 5 5 5 6 6 6 6 6
0 0 0 1 1 1 2 2 2 1 2 3 3 3 3 3 4 3 3 7 9 9 5 8 11 11 10 4 4 4 4 4 4 4 5 5 5 5 6 6 6 6 6 7
0 0 0 0 0 1 1 2 2 2 2 3 3 3 2 2 3 4 4 5 9 9 6 8 11 11 7 4 4 4 4 5 5 5 5 5 5 5 6 6 6 6 6 6
0 0 1 1 1 1 1 1 2 2 2 3 4 3 3 3 4 4 4 5 6 8 6 5 6 7 5 5 5 5 5 6 7 6 5 6 6 6 6 6 7 6 6 7
0 0 1 1 1 1 1 1 2 3 3 3 4 4 4 4 4 4 5 4 5 5 5 5 5 5 5 5 5 5 5 5 5 5 6 6 6 6 6 7 7 7 7 8
Wind_Direction
262 275 250 245 233 212 215 223 231 248 248 257 263 258 232 181 161 162 159 135 228 303 311 320 350 347 339 329 335 332 320 311 311 318 323 325 324 323 321 319 314 311 308 307
266 254 253 261 248 228 228 234 241 257 266 271 285 318 320 288 192 213 240 260 275 290 313 313 306 303 312 304 306 315 307 303 313 324 325 325 325 324 320 313 308 312 309 303
256 270 300 262 237 218 214 215 212 237 248 259 265 258 253 244 238 245 251 261 263 267 272 285 280 282 276 284 287 282 283 297 307 314 311 305 308 311 304 300 303 300 301 302
265 301 247 241 196 189 195 226 219 233 257 262 250 263 259 219 232 265 280 276 268 272 283 284 283 293 285 279 267 267 278 288 296 296 294 303 304 298 296 299 298 290 294 297
227 250 264 263 210 169 190 252 232 233 257 273 306 317 292 319 260 260 268 280 279 277 271 272 277 282 286 278 262 258 268 275 282 282 283 286 286 287 297 294 292 290 288 289
222 238 251 253 206 136 121 265 246 210 238 262 338 276 273 353 12 359 353 344 321 318 306 286 286 275 263 269 264 263 269 275 278 275 274 272 273 283 291 288 286 284 287 288
230 240 257 253 177 129 169 252 234 171 192 196 212 235 274 1 5 1 352 347 350 330 296 283 289 276 263 268 266 271 281 284 282 279 273 267 269 281 284 284 283 281 283 284
206 227 247 171 141 179 212 55 117 155 179 209 250 284 309 328 332 336 338 338 342 329 315 319 314 287 282 281 290 288 283 282 282 282 278 274 268 275 276 272 274 277 279 284
202 220 209 161 179 196 145 149 325 323 319 271 278 290 301 312 319 321 320 322 332 323 316 320 314 292 282 296 307 302 290 283 282 284 280 277 268 266 268 263 265 274 275 282
252 254 237 205 205 243 249 240 297 286 274 272 273 286 300 304 307 312 313 314 319 318 308 308 310 305 287 298 306 302 289 284 280 278 279 276 270 264 262 259 262 269 273 279
253 274 293 251 242 252 269 288 302 307 274 249 256 273 280 289 294 300 309 315 313 302 294 294 302 301 304 307 306 300 293 287 283 277 274 274 274 266 269 258 257 264 265 268
243 245 241 258 284 320 265 273 268 276 292 287 248 261 277 284 289 295 301 308 309 304 302 301 303 301 303 300 294 291 294 291 285 280 277 274 278 288 283 281 282 280 278 276
248 282 274 272 299 345 297 290 288 264 261 286 294 270 276 289 298 301 302 302 296 297 297 297 298 298 301 300 295 282 281 286 284 281 279 277 275 278 290 295 286 284 287 286
277 297 280 276 285 309 301 316 332 324 303 274 290 304 299 303 308 307 301 299 297 297 294 291 293 295 298 297 293 284 281 285 287 276 275 275 275 274 275 281 292 293 293 292
282 280 263 295 328 331 334 345 327 309 314 317 312 313 319 312 307 305 305 306 309 303 298 298 299 297 302 296 290 285 284 279 277 275 273 274 276 276 276 279 285 293 300 296
307 309 280 277 284 294 305 301 286 289 307 326 331 328 323 311 304 304 307 311 312 307 305 303 297 296 297 293 292 288 282 287 291 284 279 279 279 277 276 279 285 288 290 293
245 284 293 297 293 294 288 280 272 285 306 305 309 327 329 323 318 316 320 321 310 301 300 297 296 300 297 291 286 285 282 286 292 290 278 273 273 272 272 275 279 282 282 287
225 255 256 258 274 286 304 321 326 329 320 319 337 339 326 317 312 315 320 323 320 314 308 303 300 303 300 293 284 283 286 283 282 282 280 275 276 271 271 272 275 278 284 290
354 332 331 344 351 344 307 305 312 326 331 342 339 320 311 306 304 308 316 321 318 313 315 312 313 316 307 299 301 287 288 289 288 286 286 285 289 282 276 275 277 278 282 285
9 21 26 21 23 26 354 348 1 347 334 344 330 317 312 309 309 312 315 306 297 290 302 313 318 315 308 299 306 293 288 288 289 290 289 284 285 284 281 280 280 281 281 280
2 18 23 17 7 4 347 349 2 326 325 325 298 294 299 306 310 311 311 308 309 307 309 317 323 313 304 303 305 299 292 290 290 289 288 288 287 286 285 283 282 283 282 282
19 30 8 7 6 342 339 341 311 307 313 311 302 300 306 310 313 310 296 286 300 317 325 316 311 311 316 314 307 300 296 293 292 292 290 288 288 288 286 286 285 285 284 283
35 37 10 348 326 327 343 338 306 292 293 297 297 297 295 296 301 303 307 308 306 314 323 312 313 316 321 325 311 297 293 292 290 287 286 285 284 284 284 284 284 285 286 287
50 48 30 18 32 2 331 322 314 304 294 292 289 285 287 298 301 292 287 309 319 320 321 317 321 322 325 329 315 305 297 292 289 287 285 284 283 283 283 283 284 284 285 285
70 81 104 108 298 297 305 319 324 317 312 309 306 301 291 282 285 300 305 306 313 320 319 318 319 324 329 321 317 311 305 296 291 291 286 288 287 286 285 284 284 284 285 286
209 237 251 252 252 268 295 310 312 315 320 319 318 318 314 305 296 298 302 304 306 315 319 314 314 317 318 313 308 304 301 302 304 302 295 292 290 289 288 288 286 286 287 287
211 233 268 298 301 298 303 301 300 305 308 305 307 310 310 310 309 311 310 310 312 312 309 308 308 307 305 304 302 301 299 297 295 293 293 290 287 286 286 286 287 287 287 286
Height
1490 1488 1489 1489 1489 1492 1493 1490 1489 1481 1480 1477 1477 1479 1479 1480 1480 1480 1481 1480 1480 1479 1479 1478 1477 1477 1476 1476 1475 1475 1474 1474 1473 1473 1473 1472 1472 1472 1472 1472 1472 1473 1473 1473
1491 1487 1487 1485 1482 1484 1486 1486 1484 1481 1479 1476 1476 1477 1478 1478 1479 1479 1478 1478 1478 1477 1476 1475 1474 1474 1473 1473 1472 1472 1471 1471 1470 1470 1469 1469 1469 1468 1468 1468 1468 1468 1468 1468
1488 1488 1486 1485 1478 1478 1479 1479 1480 1478 1476 1474 1475 1475 1475 1476 1476 1476 1476 1475 1475 1474 1473 1472 1471 1471 1470 1470 1469 1469 1468 1468 1467 1467 1466 1466 1466 1465 1465 1465 1464 1464 1464 1464
1489 1489 1490 1475 1471 1471 1473 1475 1475 1474 1473 1473 1473 1473 1473 1473 1473 1473 1473 1472 1472 1471 1470 1469 1469 1468 1467 1467 1466 1466 1465 1464 1464 1464 1463 1463 1462 1462 1461 1461 1461 1460 1460 1460
1488 1487 1474 1472 1471 1472 1474 1474 1472 1472 1471 1471 1471 1471 1470 1471 1471 1471 1470 1469 1469 1468 1467 1466 1465 1465 1464 1463 1463 1462 1462 1461 1461 1460 1460 1459 1459 1458 1458 1457 1457 1457 1456 1455
1485 1484 1477 1470 1471 1469 1473 1474 1469 1469 1469 1470 1470 1472 1470 1469 1468 1468 1467 1466 1465 1464 1463 1463 1462 1461 1461 1460 1459 1459 1458 1458 1458 1457 1457 1456 1456 1455 1455 1454 1453 1453 1452 1452
1484 1481 1473 1472 1470 1470 1476 1471 1467 1467 1467 1468 1469 1469 1468 1467 1466 1465 1464 1463 1462 1461 1460 1459 1458 1458 1457 1456 1456 1455 1455 1455 1454 1454 1453 1453 1452 1452 1451 1450 1450 1449 1448 1448
1481 1479 1474 1470 1470 1471 1469 1466 1466 1465 1466 1466 1466 1466 1465 1464 1463 1462 1461 1460 1459 1458 1457 1456 1455 1454 1453 1453 1452 1452 1451 1451 1450 1450 1450 1449 1449 1448 1447 1446 1445 1444 1444 1443
1473 1470 1466 1465 1465 1465 1465 1465 1465 1465 1465 1464 1464 1463 1462 1461 1460 1459 1458 1457 1456 1455 1454 1453 1453 1451 1450 1450 1449 1448 1447 1447 1446 1446 1446 1445 1444 1444 1443 1442 1441 1440 1440 1439
1468 1464 1463 1463 1463 1463 1464 1463 1463 1463 1462 1462 1461 1460 1459 1458 1457 1456 1455 1454 1453 1452 1451 1450 1449 1448 1447 1447 1446 1445 1443 1443 1442 1441 1441 1441 1440 1440 1439 1438 1437 1437 1436 1435
1466 1463 1462 1460 1461 1461 1461 1461 1460 1459 1459 1458 1457 1456 1456 1455 1454 1453 1452 1451 1450 1449 1448 1446 1446 1445 1444 1443 1442 1441 1440 1439 1438 1437 1437 1436 1436 1435 1435 1434 1434 1433 1432 1431
1462 1460 1461 1459 1459 1459 1458 1457 1457 1456 1455 1455 1454 1453 1452 1451 1451 1450 1449 1448 1447 1446 1445 1443 1442 1441 1441 1440 1438 1437 1436 1435 1434 1433 1433 1432 1431 1431 1430 1430 1430 1429 1428 1428
1458 1457 1457 1456 1456 1456 1455 1454 1453 1452 1452 1451 1451 1450 1449 1448 1448 1447 1446 1445 1444 1443 1441 1440 1439 1438 1437 1436 1435 1434 1433 1431 1431 1430 1429 1428 1428 1427 1425 1425 1425 1424 1424 1423
1455 1455 1454 1453 1452 1452 1451 1450 1450 1449 1448 1448 1447 1447 1446 1445 1445 1444 1443 1442 1441 1439 1438 1437 1436 1434 1433 1432 1431 1430 1429 1428 1427 1426 1426 1425 1424 1423 1422 1421 1420 1419 1419 1418
1452 1452 1451 1450 1449 1448 1448 1447 1446 1446 1445 1445 1444 1444 1443 1442 1441 1441 1440 1439 1437 1436 1435 1433 1432 1431 1430 1428 1427 1426 1425 1424 1423 1422 1422 1421 1420 1419 1419 1418 1416 1415 1414 1414
1448 1448 1448 1447 1446 1445 1445 1444 1443 1443 1442 1442 1441 1441 1440 1439 1439 1438 1437 1436 1434 1433 1431 1430 1428 1427 1426 1425 1424 1422 1421 1421 1420 1419 1418 1417 1417 1416 1415 1414 1413 1412 1411 1410
1446 1445 1444 1444 1443 1443 1442 1442 1441 1441 1440 1440 1439 1438 1438 1437 1436 1435 1434 1433 1431 1430 1429 1427 1425 1424 1423 1422 1420 1419 1418 1417 1416 1415 1414 1414 1413 1412 1411 1410 1409 1408 1407 1406
1443 1443 1443 1442 1441 1440 1440 1439 1439 1439 1438 1438 1437 1436 1435 1434 1433 1432 1431 1430 1428 1427 1426 1425 1423 1421 1420 1419 1417 1416 1415 1414 1413 1412 1411 1410 1409 1408 1408 1406 1405 1404 1403 1402
1441 1441 1440 1440 1439 1438 1437 1437 1437 1437 1436 1435 1435 1434 1433 1432 1431 1430 1429 1427 1426 1424 1423 1422 1420 1419 1417 1416 1414 1413 1412 1411 1410 1409 1408 1407 1406 1405 1404 1402 1401 1400 1399 1397
1439 1438 1438 1437 1437 1436 1435 1435 1435 1434 1434 1433 1432 1432 1431 1430 1429 1428 1426 1425 1424 1422 1421 1419 1418 1416 1414 1413 1412 1410 1409 1408 1407 1405 1404 1403 1402 1401 1400 1398 1397 1396 1394 1393
1437 1436 1436 1435 1435 1434 1434 1433 1432 1432 1432 1431 1430 1429 1428 1428 1427 1426 1424 1422 1422 1420 1418 1417 1415 1414 1412 1411 1409 1408 1406 1405 1404 1402 1401 1400 1398 1397 1396 1394 1393 1391 1390 1389
1435 1434 1434 1433 1433 1432 1432 1431 1431 1430 1430 1429 1428 1427 1426 1425 1425 1423 1422 1421 1419 1418 1416 1414 1413 1411 1410 1408 1407 1405 1403 1402 1400 1399 1397 1396 1395 1393 1392 1390 1389 1387 1386 1384
1433 1433 1432 1432 1431 1430 1430 1430 1429 1428 1428 1427 1426 1425 1424 1424 1422 1421 1419 1419 1417 1415 1414 1412 1410 1409 1407 1405 1404 1402 1400 1399 1397 1395 1394 1392 1391 1389 1388 1386 1385 1383 1381 1380
1432 1431 1431 1430 1430 1429 1428 1428 1427 1427 1426 1426 1425 1424 1423 1421 1420 1419 1418 1416 1415 1413 1411 1409 1408 1406 1404 1402 1400 1398 1397 1395 1393 1392 1390 1389 1387 1385 1384 1382 1380 1379 1377 1375
1430 1430 1429 1429 1428 1427 1427 1426 1426 1425 1424 1423 1423 1422 1421 1420 1418 1417 1415 1413 1412 1410 1408 1406 1404 1403 1401 1399 1397 1395 1393 1391 1390 1388 1386 1385 1383 1381 1379 1378 1376 1374 1373 1371
1428 1428 1428 1427 1427 1426 1425 1425 1424 1423 1422 1421 1420 1420 1418 1417 1416 1414 1412 1410 1408 1407 1405 1403 1401 1399 1397 1395 1393 1391 1389 1388 1386 1384 1382 1380 1379 1377 1375 1373 1372 1370 1368 1366
1427 1426 1426 1425 1425 1424 1424 1423 1422 1421 1420 1419 1418 1417 1416 1414 1413 1411 1409 1407 1405 1403 1401 1399 1398 1396 1394 1391 1389 1387 1385 1384 1382 1380 1378 1376 1374 1372 1371 1369 1367 1366 1364 1362